www.pogodaiklimat.ru

Погода и климат >> Архив погоды >> Мексика >> Hermosillo


ПОГОДА в Hermosillo

  • Прогноз погоды в Hermosillo
  • Монитор погоды в Hermosillo
  • Климат города

АРХИВ ПОГОДЫ в Hermosillo

Время (UTC), дата Ветер
(напр.,м/с)
 
Видим.   Явления Облачность Т
(С)
Тd
(С)
f
(%)
Тe
(С)
Тes
(С)
Комфортность P
(гПа)
Po
(гПа)
Тmin
(С)
Tmax
(С)
R
(мм)
R24
(мм)
S
(см)
15 16.06 СВ 1 12 км 3/0
[Ci fib]
+28.0 +16.6 50 +32 +38 душно 1012.3 988.5
18 16.06 ЮВ 1 12 км 1/0
[Ci fib]
+37.4 +9.6 19 +36 +59 опасность
солнечного
удара
1011.8 988.4 +25.5 +37.4
21 16.06 З 1 12 км ясно +41.0 +12.8 19 +41 +63 опасность
перегрева
1008.6 985.4
03 17.06 З 4 12 км ясно +35.8 +15.2 29 +37 +37 душно 1007.4 984.2
06 17.06 З 3 8000 м ясно +30.8 +15.8 40 +33 +33 душно 1008.6 985.4 +25.3 +43.0
15 17.06 СВ 1 12 км ясно +28.6 +17.7 52 +33 +40 очень
душно
1010.2 986.5
18 17.06 ЮЗ 1 12 км ясно +37.2 +17.2 31 +40 +63 опасность
солнечного
удара
1009.6 986.2 +24.5 +37.2
15 18.06 В 3 12 км ясно +29.6 +13.4 37 +31 +36 жарко 1007.1 983.5
18 18.06 З 3 12 км 4/0
[Cs]
+38.6 +13.0 22 +39 +54 опасность
солнечного
удара
1005.9 982.7 +22.5 +38.6
15 19.06 В 1 12 км ясно +27.4 +13.6 43 +29 +36 жарко 1007.2 983.2
18 19.06 ЮЗ 1 12 км ясно +38.0 +11.6 21 +37 +61 опасность
солнечного
удара
1006.7 983.3 +23.0 +38.0
21 19.06 Ю 1 12 км ясно +43.6 +9.9 14 +42 +65 опасность
перегрева
1004.0 981.0
00 20.06 ЮЗ 1 12 км 1/0
[Ci fib]
+42.8 +17.4 23 +45 +51 опасность
перегрева
1002.5 979.7 +23.0 +44.5
03 20.06 З 3 12 км 6/0
[Ci sp]
+36.6 +13.4 25 +37 +37 очень
жарко
1003.9 981.0
06 20.06 З 1 8000 м 5/5 900 м
[Sc]
+32.0 +14.3 34 +34 +34 душно 1005.7 982.7 +23.0 +44.5
15 20.06 В 1 12 км 10/4 900 м
[Sc As op]
+28.0 +17.7 54 +32 +33 душно 1010.0 986.2
18 20.06 В 1 12 км 6/3 900 м
[Sc As trans]
+36.6 +16.8 31 +39 +51 опасность
солнечного
удара
1009.7 986.2 +27.0 +36.6
21 20.06 СЗ 1 12 км 4/0 2000 м
[As trans]
+42.4 +17.2 23 +45 +62 опасность
перегрева
1005.9 982.7
00 21.06 ЮЗ 1 12 км 1/0
[Ci fib]
+42.8 +16.9 22 +45 +51 опасность
перегрева
1002.7 979.8 +27.0 +44.0
03 21.06 З 4 12 км 8/0 2000 м
[Ac As Ci sp]
+35.6 +18.4 36 +40 +40 очень
душно
1004.7 981.8
06 21.06 З 2 8000 м ясно +31.4 +18.7 47 +36 +36 очень
душно
1006.1 983.1 +27.0 +44.0
15 21.06 СВ 2 12 км ясно +31.0 +18.9 49 +36 +42 очень
душно
1007.2 983.7
18 21.06 ЮЗ 1 12 км ясно +39.8 +18.9 30 +44 +67 опасность
перегрева
1006.3 983.2 +28.5 +39.8
21 21.06 ЮЗ 1 12 км ясно +42.0 +20.5 29 +47 +70 опасность
перегрева
1003.9 981.1
03 22.06 З 4 12 км ясно +35.6 +19.5 39 +41 +41 опасность
перегрева
1003.2 980.3
06 22.06 Ю 1 8000 м зарница 9/9 600 м
[St]
+33.8 +19.6 43 +39 +39 очень
душно
1005.4 982.4 0.0
15 22.06 В 1 12 км 9/9 900 м
[Sc]
+29.0 +18.9 54 +34 +35 очень
душно
1009.5 985.9
18 22.06 ЮВ 1 12 км 8/8 900 м
[Sc]
+35.0 +19.4 40 +40 +45 очень
душно
1009.3 985.9 +29.0 +35.0
21 22.06 ЮЗ 1 12 км ясно +38.6 +17.8 30 +42 +64 опасность
перегрева
1006.4 983.2
03 23.06 З 3 12 км ясно +34.0 +18.5 40 +39 +39 очень
душно
1006.4 983.2
06 23.06 ЮЗ 1 8000 м 8/8 900 м
[Sc]
+31.8 +17.8 43 +36 +36 очень
душно
1007.6 984.3 +29.0 +41.0

 

Местоположение метеостанции Hermosillo (Мексика): широта 29.09 долгота -111.05 высота над уровнем моря 191 м.

В архиве по умолчанию представлена погода в Hermosillo за последнюю неделю. Архивные данные за месяц целиком и за предыдущие месяцы, начиная с января 2011 года, Вы можете получить, выбрав интересующий диапазон дат из раскрывающегося списка и нажав кнопку "Ввод!".

Внимание! Время в таблицах - всемирное. Для получения местного времени необходимо прибавить поправку, которая в Hermosillo равна -7 ч.

Смотрите также архив погоды в соседних городах и на ближайших метеорологических станциях:

Погода в Hermosillo la Magna (Мексика) (10 км)
Погода в Guaymas Upper Air Site (Мексика) (131 км)
Погода в Empalme (Мексика) (131 км)
Погода в Pilares de Nacoz (Мексика) (194 км)
Погода в Altar Son (Мексика) (196 км)
Погода в Ciudad Obregon (Мексика) (224 км)
Погода в Santa Rosalia (Мексика) (233 км)
Погода в Temosachic (Мексика) (316 км)
Погода в Nueva Casas Grandes (Мексика) (336 км)
Погода в Loreto (Мексика) (342 км)

Пояснения к столбцам:

Ветер - указаны скорость ветра в м/с - средняя за 10 мин, порывы в срок и между сроками (в фигурных скобках) и направление, откуда дует ветер: С - северный, СВ - северо-восточный, В - восточный, ЮВ - юго-восточный, Ю - южный, ЮЗ - юго-западный, З - западный, СЗ - северо-западный.
Видимость - горизонтальная дальность видимости в метрах или километрах. При видимости от 1 до 10 км при отсутствии осадков обычно наблюдается дымка, при ухудшении видимости до 1 км и менее - туман. В сухую погоду видимость может ухудшаться дымом, пылью или мглою.
Явления - указаны атмосферные явления, наблюдавшиеся в срок или в последний час перед сроком; фигурными скобками обозначены явления, наблюдавшиеся между сроками (за 1-3 часа до срока); квадратными скобками обозначены град или гололедные отложения с указанием их диаметра в мм.
Облачность - указаны через наклонную черту общая и нижняя облачность в баллах и высота нижней границы облаков в метрах; квадратными скобками обозначены формы облаков: Ci - перистые, Cs - перисто-слоистые, Cc - перисто-кучевые, Ac - высококучевые, As - высокослоистые, Sc - слоисто-кучевые, Ns - слоисто-дождевые, Cu - кучевые, Cb - кучево-дождевые. Подробнее классификацию облаков см. в Атласе облаков (PDF).
T - Температура воздуха - температура, измеренная на высоте 2 м над землей.
Td - Температура точки росы - температура, при понижении до которой содержащийся в воздухе водяной пар достигнет насыщения.
f - Относительная влажность воздуха - влажноcть воздуха, измеренная на высоте 2 м над землей.
Te - Эффективная температура - температура, которую ощущает одетый по сезону человек в тени. Характеристика душности погоды. При расчете учитывается влияние влажности воздуха и скорости ветра на теплоощущения человека.
Tes - Эффективная температура на солнце - температура, которую ощущает человек, с поправкой на солнечный нагрев. Характеристика знойности погоды. Зависит от высоты солнца над горизонтом, облачности и скорости ветра. Ночью, в пасмурную погоду, а также при ветре 12 м/с и более поправка равна нулю.
P - Атмосферное давление - приведенное к уровню моря атмосферное давление.
Po - Атмосферное давление - измеренное на уровне метеостанции атмосферное давление.
Tmin - Минимальная температура - минимум температуры воздуха на высоте 2 м над землей.
Tmax - Максимальная температура - максимум температуры воздуха на высоте 2 м над землей.
R - Количество осадков - Количество выпавших осадков за период времени, мм. При наведении курсора мыши на число - период времени, за который выпало указанное количество осадков.
R24 - Количество осадков - Количество выпавших осадков за 24 часа, мм.
S - Снежный покров - Высота снежного покрова, см. При наведении курсора мыши на число - состояние снежного покрова и степень покрытия местности в баллах.